Theta_e
306 301 298 301 303 303 303 301 300 304 308 306 305 306 307 310 311 311 313 314 315 318 326 329 340 350 351 353 354 354 358 360 354 352 349 352 351 349 343 344 342 344 339 340
304 299 304 306 305 304 303 301 300 304 307 306 305 304 308 310 311 312 312 314 315 319 323 326 343 348 348 350 350 351 353 356 354 352 351 355 351 347 341 340 341 341 340 341
301 304 308 305 303 301 301 300 300 300 304 305 304 301 305 308 311 312 314 315 316 317 318 324 345 347 346 346 347 347 348 357 353 356 356 360 351 345 339 337 337 339 339 339
304 307 305 304 302 303 298 304 303 301 299 294 303 294 303 306 307 310 312 313 314 316 318 321 340 341 344 348 345 346 347 352 354 357 353 354 343 336 337 335 335 337 337 337
301 304 303 302 303 305 301 305 303 302 299 299 298 295 300 306 305 308 311 313 314 316 317 318 327 338 344 342 346 345 342 343 350 351 353 353 349 342 343 336 336 334 338 338
304 308 306 305 306 307 307 303 302 301 299 293 297 296 297 301 305 308 311 313 315 316 316 318 320 346 347 347 348 348 348 349 349 341 343 347 347 341 340 335 332 332 334 335
302 303 306 307 303 306 304 300 292 290 291 290 299 296 299 306 307 309 312 315 318 319 319 320 321 336 346 345 347 347 349 346 346 339 341 349 347 344 340 338 331 330 331 332
294 293 303 307 304 301 301 300 294 286 288 291 299 294 299 309 310 312 314 316 318 319 320 321 323 325 325 345 341 345 347 350 350 348 348 349 347 342 334 340 334 332 329 331
293 294 302 304 306 306 301 297 303 296 297 293 297 300 305 308 309 311 312 314 317 318 319 319 322 325 329 331 338 325 348 350 351 350 346 342 347 342 337 338 337 333 332 332
296 289 297 300 302 305 302 304 295 297 288 287 293 296 298 304 308 309 311 313 316 317 318 320 322 328 330 331 334 343 325 348 349 349 349 346 346 342 340 343 335 336 338 336
295 292 291 296 294 294 296 295 298 298 296 289 288 293 304 307 310 309 307 312 315 316 318 320 322 327 328 330 332 333 343 351 349 349 348 347 343 339 340 342 339 335 339 338
295 292 287 290 295 297 296 295 296 291 290 294 294 294 307 308 309 308 309 309 310 315 318 320 322 324 326 327 329 332 334 335 347 344 342 345 343 341 341 346 340 338 341 337
294 289 284 285 291 295 292 295 296 296 297 291 287 292 307 308 305 307 306 305 306 309 315 319 321 322 324 325 327 328 331 333 332 347 345 347 347 348 346 346 340 338 336 337
294 289 285 281 285 290 288 290 292 292 288 289 290 293 302 305 305 305 302 302 305 305 311 314 316 318 323 325 326 327 330 332 335 333 348 349 348 347 344 339 338 339 335 336
293 287 289 289 290 290 289 289 289 288 289 286 290 291 296 299 302 304 303 303 303 302 307 310 311 316 320 323 326 328 332 334 336 336 343 348 347 341 335 334 334 334 333 335
296 287 290 287 290 290 287 290 290 289 289 289 289 289 296 299 302 302 303 302 300 301 302 305 308 311 319 320 322 327 328 332 335 334 333 338 340 337 332 332 332 332 332 332
293 290 287 282 288 288 284 288 289 290 291 291 287 291 296 296 298 300 300 300 300 301 303 305 306 309 317 319 323 322 325 330 331 332 333 336 338 334 333 331 329 328 328 329
292 290 288 284 286 277 288 294 293 291 293 294 294 295 296 297 299 300 301 300 302 302 304 306 306 310 312 316 319 322 323 325 326 327 329 330 332 335 334 333 332 327 327 331
296 291 287 283 282 286 288 292 291 289 290 295 294 295 297 298 300 299 304 306 305 307 308 310 310 311 313 312 316 321 322 323 323 325 325 327 327 330 334 332 334 332 329 329
294 295 289 284 280 278 288 294 298 296 286 297 299 298 297 300 292 296 304 305 306 307 308 310 311 311 313 314 317 320 320 321 321 325 325 322 323 328 329 333 331 331 331 331
288 289 286 285 283 285 293 296 298 284 287 297 298 298 298 297 301 305 306 305 306 307 307 310 310 309 311 315 319 318 319 318 322 323 326 322 320 322 328 330 331 331 330 330
288 286 286 287 283 281 296 294 287 294 298 298 298 298 298 301 303 304 304 305 305 305 306 307 309 309 312 314 318 318 319 321 320 323 322 318 315 317 319 322 333 331 327 328
287 290 288 289 288 297 298 297 299 299 297 297 297 299 299 299 300 302 303 304 304 305 307 309 308 309 311 313 317 316 319 320 320 320 319 316 313 312 313 312 309 310 309 316
293 296 291 291 293 295 295 297 298 298 296 296 297 296 297 297 300 301 301 303 304 304 305 307 307 307 308 312 313 318 320 321 319 318 317 316 315 313 310 309 306 304 305 304
293 295 292 292 294 293 294 295 295 295 296 295 297 297 297 298 298 300 301 303 303 303 306 307 306 307 308 310 312 317 318 319 315 318 314 314 313 311 306 302 302 301 301 305
296 290 288 286 292 290 290 294 295 294 295 295 295 295 298 298 298 299 300 302 302 303 305 306 308 308 308 309 310 312 313 317 319 315 314 314 311 312 308 305 302 294 296 297
Wind_Speed
15 12 15 19 19 19 20 20 23 21 19 17 20 18 17 15 23 22 18 17 18 20 20 14 15 21 21 14 15 12 9 9 9 8 9 7 6 4 5 5 11 7 6 6
14 16 18 17 18 18 19 21 20 20 22 21 19 19 17 16 19 19 19 17 14 10 12 19 11 20 22 20 18 15 11 11 9 7 7 7 7 4 5 7 7 7 7 6
19 19 19 18 16 18 18 18 19 19 19 21 21 22 20 20 21 20 21 16 14 15 17 19 20 22 17 19 21 22 19 12 11 8 6 4 7 4 5 8 7 5 7 6
20 20 22 19 16 16 17 18 19 19 16 16 17 16 19 20 23 23 22 20 18 17 17 13 25 23 23 24 22 21 21 17 13 9 9 8 9 8 5 7 7 6 8 7
21 23 23 22 22 21 20 17 18 19 18 18 21 16 17 18 19 22 23 24 22 19 18 16 17 25 26 24 22 19 18 25 27 20 8 8 7 8 5 7 9 6 6 8
24 25 25 22 22 19 19 20 19 18 16 17 19 18 17 18 19 21 17 17 22 10 20 19 19 23 23 22 22 21 23 23 24 18 17 13 14 10 8 9 10 8 5 5
22 25 24 24 25 21 18 14 12 15 15 17 20 22 17 20 21 20 2 11 13 10 8 10 6 19 25 28 25 24 25 26 22 19 22 25 23 9 7 1 6 9 8 6
17 20 18 11 15 22 23 19 14 20 16 19 21 19 18 20 21 17 7 10 7 5 8 12 12 9 1 15 28 25 23 20 20 22 23 19 20 12 10 7 8 7 10 10
10 15 23 23 19 10 16 16 18 21 20 17 19 25 22 14 3 9 12 13 11 4 1 3 8 7 10 8 7 8 12 21 23 20 17 17 16 20 24 30 23 12 8 9
8 18 14 19 23 14 10 13 14 13 19 18 22 20 16 17 10 14 7 9 9 2 5 4 4 8 9 9 6 26 32 31 25 26 24 19 18 16 16 14 18 15 9 12
11 9 14 19 15 17 15 13 17 14 16 13 15 11 15 21 16 14 20 22 11 9 8 7 6 9 12 16 18 16 13 37 28 24 20 18 16 14 9 10 13 15 11 16
10 7 15 19 24 24 23 14 16 10 12 16 17 11 10 13 17 23 14 13 22 16 12 8 8 10 11 15 17 17 15 8 10 14 17 7 14 15 13 13 15 17 13 16
7 5 12 13 14 16 13 14 16 17 15 19 7 10 8 10 6 13 15 17 21 16 13 11 9 9 10 10 13 16 17 19 14 18 24 26 22 16 16 15 14 13 14 15
2 6 13 13 17 20 15 14 12 15 11 18 19 20 9 10 11 9 12 21 22 20 11 8 9 11 9 9 11 14 16 16 18 22 15 19 18 16 12 14 17 14 15 14
6 10 13 16 19 20 18 18 18 15 18 16 19 24 19 3 10 9 13 13 13 19 16 6 8 9 10 13 12 13 17 15 17 14 2 19 15 16 15 15 13 14 17 17
7 5 15 14 20 20 19 21 26 20 20 22 22 22 20 20 7 7 12 16 13 6 14 14 11 11 6 8 10 12 13 14 16 14 18 2 7 14 17 16 12 15 14 14
9 12 11 15 17 17 17 16 18 20 18 18 20 20 19 19 16 9 10 7 5 6 7 8 10 12 7 11 6 8 12 13 14 14 12 8 15 14 14 15 15 15 13 12
12 13 12 14 14 16 17 16 10 16 16 15 15 18 17 17 13 13 13 10 8 8 6 8 10 12 13 10 9 7 8 11 9 11 11 8 3 10 12 15 16 15 13 13
15 11 10 10 12 18 20 15 9 8 16 18 15 14 17 14 14 10 9 13 11 9 7 5 6 8 9 11 10 13 5 6 10 10 11 10 10 4 11 11 13 12 13 13
9 10 8 12 14 17 18 20 23 15 12 21 20 16 18 22 10 4 10 6 5 5 4 3 6 9 10 6 7 7 7 5 6 6 7 9 9 8 2 11 11 10 9 11
4 9 9 9 8 9 8 19 17 11 9 18 18 19 14 18 14 12 3 7 7 7 6 8 5 6 10 10 4 5 7 6 8 4 7 9 9 8 9 4 9 12 11 12
8 6 8 7 6 7 11 15 10 14 15 17 19 18 19 19 18 17 16 14 11 11 11 11 8 6 6 11 7 6 6 4 8 5 7 6 8 7 6 9 4 10 9 12
5 2 4 5 8 18 15 12 15 15 17 21 22 22 21 22 21 19 16 16 14 14 11 10 11 10 6 9 8 4 3 2 4 3 5 4 7 7 9 10 10 6 9 6
7 8 4 10 4 16 17 16 15 17 18 18 19 21 22 24 23 21 18 14 16 13 12 13 13 14 11 7 9 5 6 5 5 4 4 5 5 8 7 8 8 8 8 10
12 11 8 13 15 20 8 17 17 19 19 19 19 20 22 22 22 20 15 16 13 12 12 13 13 14 12 9 8 4 3 4 5 6 4 4 5 7 8 8 5 7 5 4
5 2 1 6 15 12 15 14 20 18 17 17 19 21 18 18 19 19 16 12 13 15 12 10 14 15 12 11 8 5 2 2 5 6 5 4 4 4 5 5 7 14 12 6
Wind_Direction
202 220 217 228 227 249 269 276 278 286 284 246 262 267 243 255 266 248 262 241 231 228 213 221 170 161 150 141 146 160 147 143 164 181 183 170 186 149 131 141 136 152 150 137
223 223 239 238 240 244 256 257 262 275 285 292 287 280 249 248 276 269 243 257 257 225 210 212 162 149 154 150 154 157 159 161 178 196 204 172 178 144 140 126 140 157 147 141
232 242 216 231 247 255 248 261 273 274 277 273 267 265 272 264 250 266 275 267 258 259 227 200 150 150 154 156 170 165 158 166 177 184 220 168 160 139 158 141 148 160 147 147
244 252 256 261 248 236 255 261 251 262 264 265 267 257 247 242 242 244 248 251 245 243 257 242 184 175 169 170 171 175 154 139 181 194 226 201 182 171 176 153 155 158 153 162
253 256 250 254 245 253 268 248 265 274 261 260 251 265 269 264 252 237 229 229 237 233 240 238 205 190 170 174 176 184 170 168 187 172 195 224 205 166 155 159 151 168 169 164
269 277 276 271 270 258 244 263 263 257 264 253 258 247 259 265 267 270 268 237 219 238 221 225 245 171 172 178 175 180 176 179 169 171 155 234 236 171 174 169 157 165 172 170
251 252 256 258 266 265 261 258 246 245 240 250 245 249 264 258 263 269 283 45 53 53 342 343 321 177 176 185 179 182 184 186 188 181 172 190 183 177 53 238 177 163 173 178
286 278 271 321 286 266 234 234 254 255 251 261 258 249 246 245 244 248 116 93 72 30 18 359 353 6 253 219 203 186 180 174 170 175 180 182 177 154 104 291 241 194 186 177
323 290 326 325 330 274 281 276 272 280 285 288 288 284 286 276 343 187 191 140 113 81 16 342 336 347 347 351 133 353 234 187 171 174 186 195 182 160 179 185 208 192 168 166
319 306 305 320 325 297 290 291 298 286 275 252 243 272 289 4 313 218 230 135 97 201 207 92 347 354 336 306 257 163 185 220 179 180 184 187 183 188 186 169 181 180 178 161
322 267 293 302 289 292 304 289 264 272 269 268 275 286 31 5 8 86 11 347 55 357 20 52 32 23 356 350 352 353 170 211 173 180 182 178 186 202 194 142 174 166 187 149
334 302 295 289 301 298 294 288 292 284 275 297 299 253 92 51 11 23 64 339 345 351 6 8 35 40 20 2 350 341 338 321 196 166 167 188 201 197 200 162 187 170 162 147
2 293 307 300 287 243 288 288 287 277 273 258 254 293 101 106 62 15 11 346 334 330 355 351 12 46 35 23 355 347 336 328 321 174 153 182 199 192 193 176 169 171 154 155
53 263 266 278 294 307 303 299 296 294 292 286 259 260 185 193 153 54 12 331 314 310 318 359 345 0 20 21 7 354 337 333 335 334 194 156 184 184 159 168 163 167 172 175
219 267 277 290 302 297 292 287 280 273 279 273 292 295 288 338 143 190 184 206 259 319 320 356 353 342 16 6 5 8 352 352 346 340 173 166 150 141 151 157 173 169 171 185
38 278 283 295 295 298 302 303 298 268 268 272 278 277 287 295 152 213 214 219 199 236 308 307 337 327 21 353 3 8 3 358 344 347 7 175 61 151 159 160 176 181 191 203
225 265 297 287 286 279 286 275 270 310 282 286 270 278 277 280 289 219 202 229 270 263 178 323 334 320 346 359 19 1 9 359 352 0 13 46 167 177 157 165 179 187 200 199
263 266 277 282 290 290 287 297 303 259 267 276 289 286 284 278 280 290 296 294 276 282 53 32 341 328 333 339 335 325 13 349 359 349 357 10 39 188 173 179 187 192 198 206
224 254 265 275 274 277 290 294 296 303 307 298 315 298 316 314 318 295 45 37 29 52 41 12 327 312 309 320 324 326 9 16 341 13 352 359 346 354 179 193 198 197 202 215
219 229 262 274 275 278 280 299 346 346 285 11 353 343 336 335 286 304 34 25 27 351 311 321 312 315 309 281 285 320 309 17 335 6 14 346 347 331 279 198 196 206 192 212
253 256 273 262 266 266 10 358 333 279 338 329 330 325 324 316 319 321 346 288 314 301 287 293 283 297 313 315 275 292 304 320 329 12 38 5 353 334 4 285 190 201 205 204
315 298 268 273 251 257 10 339 345 315 320 322 314 311 304 297 295 305 317 306 308 307 307 299 290 280 304 303 294 310 309 317 296 18 53 41 24 18 5 7 231 213 200 211
294 21 292 300 296 322 320 335 333 324 310 316 315 310 306 299 297 296 277 286 285 294 293 298 298 289 265 272 290 248 260 268 300 66 92 88 79 48 46 51 34 39 39 352
322 323 260 297 292 311 342 320 331 322 316 312 302 297 292 286 286 283 281 257 262 288 273 280 284 284 278 264 287 262 203 218 238 157 107 78 92 82 57 71 62 45 53 61
290 302 297 293 303 332 314 324 313 304 296 291 292 287 277 279 281 276 278 268 278 271 279 271 262 269 266 273 274 165 246 195 176 212 138 156 100 92 75 47 45 95 30 71
27 64 309 289 312 291 294 300 298 300 300 295 292 292 275 266 273 274 264 264 276 267 264 274 273 264 254 267 265 284 124 290 231 193 167 150 140 147 107 91 81 27 66 62